Kalispell, MT

6:37 AM MST on November 23, 2017 (GMT -0700)
Glacier Park International

Weather History for KGPI - November, 2012

Change the Weather History Date:

Thursday, November 29, 2012

  Actual Average Record
Temperature  
Mean Temperature 35 °F 27 °F  
Max Temperature 40 °F 34 °F 56 °F (1932)
Min Temperature 30 °F 20 °F -14 °F (1985)
Degree Days  
Heating Degree Days 30 38  
Month to date heating degree days 871 959  
Since 1 July heating degree days 1954 2167  
Cooling Degree Days 0 0  
Month to date cooling degree days 0 0  
Year to date cooling degree days 192 147  
Moisture  
Dew Point 32 °F    
Average Humidity 90    
Maximum Humidity 100    
Minimum Humidity 79    
Precipitation  
Precipitation 0.05 in 0.05 in 0.31 in (1964)
Month to date precipitation 1.40 1.38  
Year to date precipitation 19.01 15.38  
Snow  
Snow 0.00 in - - ()
Month to date snowfall 0.3  
Year to date snowfall 27.4  
Since 1 July snowfall 2.3  
Snow Depth 0.00 in    
Sea Level Pressure  
Sea Level Pressure 29.89 in    
Wind  
Wind Speed 1 mph (NW)    
Max Wind Speed 12 mph    
Max Gust Speed 23 mph    
Visibility 7 miles    
Events Fog , Rain    
T = Trace of Precipitation, MM = Missing Value Source: NWS Daily Summary

Daily Weather History Graph

Daily Weather History Graph

Search for Another Location

Airport or City:

Trip Planner

Search our weather history database for the weather conditions in past years. The results will help you decide how hot, cold, wet, or windy it might be!

Date:

Astronomy

Nov. 29, 2012 Rise Set
Actual Time 8:05 AM MST 4:45 PM MST
Civil Twilight 7:29 AM MST 5:21 PM MST
Nautical Twilight 6:50 AM MST 6:00 PM MST
Astronomical Twilight 6:12 AM MST 6:37 PM MST
Moon 5:51 PM MST (11/29) 8:55 AM MST (11/29)
Length of Visible Light 9h 51m
Length of Day
8h 40m
Full, 99% of the Moon is Illuminated
Nov 29
Full
Dec 6
Last Quarter
Dec 13
New
Dec 19
First Quarter
Dec 28
Full

Hourly Weather History & Observations

Time (MST) Temp. Windchill Dew Point Humidity Pressure Visibility Wind Dir Wind Speed Gust Speed Precip Events Conditions
12:25 AM 30.2 °F - 28.4 °F 93% 29.85 in 9.0 mi Calm Calm - N/A   Overcast
12:55 AM 30.9 °F 27.5 °F 28.9 °F 92% 29.92 in 8.0 mi North 3.5 mph - N/A   Overcast
1:55 AM 32.0 °F - 28.9 °F 88% 29.92 in 9.0 mi Calm Calm - N/A   Overcast
2:29 AM 32.0 °F - 30.2 °F 93% 29.86 in 8.0 mi Calm Calm - N/A   Overcast
2:55 AM 32.0 °F - 30.0 °F 92% 29.93 in 8.0 mi Calm Calm - N/A   Overcast
3:07 AM 32.0 °F - 30.2 °F 93% 29.86 in 9.0 mi Calm Calm - N/A   Overcast
3:55 AM 32.0 °F - 30.0 °F 92% 29.93 in 9.0 mi Calm Calm - N/A   Overcast
4:32 AM 32.0 °F - 30.2 °F 93% 29.86 in 8.0 mi Calm Calm - N/A   Overcast
4:47 AM 32.0 °F - 30.2 °F 93% 29.86 in 9.0 mi Calm Calm - N/A   Overcast
4:55 AM 32.0 °F - 30.0 °F 92% 29.95 in 8.0 mi Calm Calm - N/A   Overcast
5:37 AM 32.0 °F - 30.2 °F 93% 29.87 in 8.0 mi Calm Calm - N/A   Overcast
5:55 AM 30.9 °F - 28.9 °F 92% 29.95 in 7.0 mi Calm Calm - N/A   Mostly Cloudy
6:31 AM 30.2 °F - 30.2 °F 100% 29.87 in 6.0 mi Calm Calm - N/A   Overcast
6:55 AM 32.0 °F - 30.0 °F 92% 29.96 in 6.0 mi Calm Calm - N/A   Overcast
7:52 AM 32.0 °F - 30.2 °F 93% 29.88 in 6.0 mi Calm Calm - N/A   Overcast
7:55 AM 32.0 °F - 30.0 °F 92% 29.97 in 3.0 mi Calm Calm - N/A   Overcast
8:55 AM 33.1 °F - 30.9 °F 92% 29.97 in 1.0 mi Calm Calm - N/A   Overcast
9:37 AM 33.8 °F - 33.8 °F 100% 29.89 in 0.5 mi Calm Calm - N/A Fog Fog
9:55 AM 34.0 °F - 33.1 °F 96% 29.96 in 0.5 mi Calm Calm - N/A Fog Fog
10:10 AM 33.8 °F - 33.8 °F 100% 29.89 in 2.0 mi Calm Calm - N/A   Overcast
10:26 AM 33.8 °F - 33.8 °F 100% 29.89 in 3.0 mi Calm Calm - N/A   Overcast
10:55 AM 35.1 °F - 33.1 °F 92% 29.96 in 5.0 mi Calm Calm - N/A   Overcast
11:55 AM 37.0 °F - 34.0 °F 89% 29.93 in 7.0 mi Calm Calm - N/A   Mostly Cloudy
12:55 PM 37.9 °F - 34.0 °F 86% 29.91 in 8.0 mi Calm Calm - N/A   Overcast
1:55 PM 39.0 °F - 34.0 °F 82% 29.90 in 10.0 mi Calm Calm - N/A   Scattered Clouds
2:55 PM 39.0 °F - 34.0 °F 82% 29.87 in 10.0 mi Calm Calm - N/A   Mostly Cloudy
3:55 PM 37.0 °F - 34.0 °F 89% 29.87 in 10.0 mi Calm Calm - N/A   Scattered Clouds
4:55 PM 35.1 °F 32.2 °F 33.1 °F 92% 29.87 in 10.0 mi WNW 3.5 mph - N/A   Overcast
5:55 PM 35.1 °F - 33.1 °F 92% 29.86 in 10.0 mi Calm Calm - N/A   Overcast
6:55 PM 36.0 °F - 34.0 °F 93% 29.86 in 10.0 mi Calm Calm - 0.00 in Rain Light Rain
7:55 PM 35.1 °F 32.2 °F 34.0 °F 96% 29.84 in 5.0 mi West 3.5 mph - 0.01 in Rain Light Rain
8:55 PM 35.1 °F - 35.1 °F 100% 29.83 in 5.0 mi North - - 0.02 in Rain Light Rain
9:55 PM 36.0 °F - 35.1 °F 97% 29.81 in 7.0 mi Calm Calm - 0.01 in   Overcast
10:55 PM 35.1 °F - 35.1 °F 100% 29.80 in 4.0 mi Calm Calm - 0.01 in Rain Light Rain
11:55 PM 35.1 °F - 35.1 °F 100% 29.79 in 3.0 mi Calm Calm - 0.00 in Rain Light Rain